Location: Clair
(33.8067°N, 117.9845°W)
Time: 07:36:07
(UTC+00:00)

COSMOS 2455 - Pass Details

Date: 14 February 2026
Orbit: 900 x 909 km, 67.1° (Epoch: 12 March)

Event Time Altitude Azimuth Distance (km) Brightness Sun altitude
Exits shadow 12:27:34 50° 343° (NNW) 1,138 3.2 -27.5°
Drops below altitude 10° 12:32:20 10° 18° (NNE) 2,595 5.4 -26.5°
Sets 12:34:54 0° 22° (NNE) 3,540 6.2 -26.0°
